ECMWFNIL_250_rhum_000.txt.gz
RH
5 5 6 6 6 6 6 5 6 6 7 8 9 10 11 11 11 12 13 13 14 14 15 16 15 14 12 10 9 8 7 7 6 6 5 6 5 4 4 3 3 3
6 6 6 6 6 6 6 6 6 6 7 8 9 11 12 12 12 13 14 14 14 15 16 17 16 14 12 10 9 8 8 7 6 6 6 6 5 4 4 3 3 3
6 6 6 6 6 7 6 6 7 7 8 8 9 11 11 12 13 13 14 15 15 16 17 18 16 14 13 11 10 9 8 8 6 6 6 6 5 4 4 3 3 3
6 6 7 7 7 7 7 7 7 7 8 9 9 11 11 12 13 14 14 15 15 17 18 18 17 15 14 12 10 10 9 8 7 6 7 6 5 5 4 4 3 3
7 7 7 8 8 8 8 8 8 8 8 9 9 10 11 13 13 14 14 15 16 18 19 19 17 15 14 12 11 11 9 8 7 7 7 6 5 5 4 4 4 3
8 8 8 9 9 9 9 9 9 9 9 9 10 11 12 13 13 14 14 15 16 19 20 19 17 16 15 13 12 11 10 9 8 7 8 7 6 5 4 4 4 3
10 10 10 10 10 10 10 10 10 9 10 10 10 11 12 12 13 13 14 15 16 19 20 19 17 16 15 13 13 12 11 9 8 8 8 7 6 5 5 4 4 4
10 11 11 11 11 11 11 10 10 10 10 10 10 11 12 12 13 14 14 15 16 18 20 19 18 17 15 14 13 12 11 9 9 8 8 7 6 6 5 4 4 4
11 11 11 11 11 11 11 11 11 11 10 11 11 12 12 12 13 14 13 14 16 17 19 19 18 16 15 14 13 12 11 10 9 9 8 7 6 6 6 5 4 4
12 12 12 13 12 12 12 12 12 12 11 12 12 12 12 12 13 14 13 14 15 17 18 18 17 16 15 15 14 12 11 10 10 9 8 7 7 6 6 5 5 4
12 13 14 14 14 13 14 14 14 14 13 13 13 13 13 13 13 13 13 14 15 16 17 17 16 16 15 15 14 12 11 10 10 10 8 8 7 6 6 5 5 5
13 14 15 15 15 15 16 16 15 15 14 13 13 13 14 13 13 12 13 14 15 15 15 15 15 14 14 14 13 12 11 10 10 10 8 8 7 6 5 5 5 5
15 16 16 16 16 17 18 18 17 16 15 14 13 13 14 13 12 12 13 14 14 14 14 14 14 13 13 13 13 12 11 10 10 10 9 8 7 6 5 5 5 5
17 18 18 18 18 19 19 20 19 17 15 14 13 13 14 13 12 12 13 14 14 14 14 13 13 13 12 12 12 11 11 10 10 10 9 9 7 5 5 5 4 5
18 19 19 19 20 20 20 21 20 18 16 15 14 13 13 13 12 13 13 14 14 14 13 13 13 12 12 11 11 11 10 10 10 10 9 9 7 5 5 5 5 5
20 20 19 20 20 19 20 20 19 18 17 16 15 14 14 13 12 13 13 13 14 14 13 13 12 11 11 10 10 10 10 10 10 10 10 9 7 6 5 5 5 5
20 20 20 20 20 19 18 18 19 18 17 16 15 15 14 13 12 12 13 13 14 14 13 13 12 11 10 9 9 9 9 10 10 9 9 9 7 5 5 5 5 6
19 20 20 20 20 19 18 17 18 18 17 16 16 15 14 13 12 12 12 12 13 13 13 12 11 10 9 9 8 9 9 9 9 9 9 9 7 5 5 5 5 6
18 18 19 20 19 18 17 17 17 17 17 16 16 16 14 13 13 13 12 13 13 13 12 11 11 10 9 8 8 8 9 9 9 9 9 8 7 5 5 5 5 8
16 17 18 19 18 18 17 17 17 17 17 16 16 15 14 12 13 14 13 13 13 12 12 11 10 9 8 8 8 8 9 8 9 9 9 8 7 6 6 6 6 9
15 15 17 18 18 18 17 17 18 17 16 16 16 16 14 12 13 14 14 14 12 11 11 10 10 9 8 7 7 8 8 8 9 9 9 8 6 6 6 6 7 11
14 14 15 16 17 18 17 17 17 17 16 16 16 16 15 14 14 15 15 14 12 10 10 10 9 9 8 7 7 7 8 8 9 9 8 7 6 6 6 6 8 12
12 13 13 14 15 16 17 16 16 16 16 16 16 16 16 16 15 15 15 14 12 9 9 9 9 8 7 7 7 7 8 8 9 9 8 7 6 6 6 6 9 13
10 11 12 13 13 14 15 15 16 16 16 17 16 16 16 16 16 15 14 13 11 9 8 9 8 7 7 7 7 7 7 8 9 9 8 7 7 6 6 7 10 14
8 9 10 11 12 12 13 14 14 15 16 17 17 16 16 17 17 16 14 13 11 9 8 8 8 7 7 7 7 7 7 8 9 9 8 7 7 7 6 7 10 14
7 8 9 10 11 11 12 13 14 14 15 16 16 16 16 16 17 15 13 12 10 8 7 8 7 7 7 7 8 7 7 8 9 9 8 7 7 7 6 7 11 14

ECMWFNIL_250_rhum_003.txt.gz
RH
5 5 5 5 6 5 6 6 6 7 7 6 6 6 6 6 6 7 7 7 7 7 7 7 7 8 8 8 8 8 7 8 8 9 9 9 8 8 8 7 7 6
5 5 5 6 6 6 6 7 7 7 7 7 7 6 6 6 6 7 7 7 7 7 7 7 8 8 9 9 8 8 8 8 9 9 9 9 8 9 8 8 7 6
5 5 5 6 6 6 7 7 7 8 7 8 7 6 6 6 7 7 7 8 8 8 8 8 9 9 9 10 9 9 8 8 9 9 9 9 8 9 8 8 7 6
6 5 5 6 5 6 6 7 7 8 8 8 7 7 6 6 8 8 8 9 8 9 9 9 10 10 9 10 9 9 9 9 9 9 9 9 8 8 8 8 8 6
6 6 6 6 6 6 6 7 7 8 8 9 8 7 6 7 9 9 10 10 9 9 10 10 10 9 9 9 9 9 9 9 9 9 9 9 8 8 8 8 8 6
7 7 6 6 6 6 6 7 7 8 8 9 9 7 7 7 9 10 10 9 9 9 10 10 9 9 9 9 9 9 9 9 9 9 9 8 8 8 8 8 7 6
9 8 8 7 7 7 7 7 8 8 8 8 9 8 7 8 8 9 10 9 9 10 10 9 9 9 9 9 9 9 9 9 9 9 9 8 8 8 8 8 7 6
9 10 9 9 8 7 7 8 8 8 8 8 8 8 8 8 8 9 10 9 9 10 9 9 9 9 10 10 10 9 9 8 8 9 8 8 8 8 8 8 7 6
8 10 10 10 9 9 8 9 8 8 8 8 8 8 8 8 8 9 10 10 10 9 9 9 9 10 10 10 10 9 8 8 8 8 8 8 8 8 8 8 7 6
8 9 10 11 10 10 10 10 9 9 9 9 9 9 9 9 9 10 10 10 10 9 9 9 10 11 11 11 10 9 8 8 8 8 8 7 8 8 8 8 7 6
9 9 10 11 11 11 11 11 11 10 10 11 10 10 10 10 10 11 11 10 10 9 9 10 10 11 12 12 11 10 9 8 7 7 7 7 7 8 8 8 7 6
9 10 11 11 11 11 12 11 12 12 12 12 12 12 12 11 12 12 12 11 11 10 10 11 11 11 13 12 10 10 9 7 7 7 7 7 7 8 8 7 7 6
9 9 10 11 11 11 11 12 12 12 13 14 13 13 13 12 13 13 13 12 12 11 11 11 12 12 13 12 10 10 9 7 7 6 7 7 7 8 8 7 7 6
8 9 10 11 11 11 11 12 12 12 13 14 14 14 13 13 13 13 13 13 12 12 12 12 12 12 13 13 11 10 8 7 6 6 7 7 7 8 8 7 7 6
8 9 10 10 11 11 11 12 13 13 14 15 15 14 13 12 13 13 13 13 13 13 13 13 13 13 13 13 11 10 9 7 6 6 7 7 8 8 7 7 7 6
7 8 9 10 10 11 11 12 12 13 14 15 15 15 14 12 12 13 13 12 13 14 13 13 13 13 13 13 11 10 9 7 6 6 7 7 8 8 7 6 6 6
6 7 8 9 10 11 11 11 11 12 14 14 14 15 15 13 13 13 12 12 13 14 13 13 14 13 13 13 12 10 9 7 7 6 7 8 8 7 6 6 6 6
6 7 8 8 9 10 10 11 11 11 13 13 14 15 15 14 13 13 12 11 11 13 13 13 14 13 13 14 12 10 9 7 6 6 7 8 8 7 7 6 6 6
5 6 7 7 8 9 10 10 10 10 12 13 13 14 14 14 13 13 13 12 11 12 12 13 14 13 13 13 11 9 9 7 6 7 7 8 8 7 7 6 7 7
4 5 6 7 7 8 9 9 9 9 11 12 12 13 14 13 13 12 12 12 12 12 13 13 13 12 12 11 9 8 8 7 6 7 7 8 8 7 7 7 7 7
4 4 6 6 6 7 7 8 9 9 10 11 11 12 12 12 12 12 12 12 12 13 13 13 13 11 11 10 9 8 8 6 6 7 8 8 8 7 7 7 7 7
4 4 5 6 6 6 6 7 8 8 9 10 10 11 11 11 11 12 12 13 13 13 14 13 13 11 11 10 8 8 8 6 6 7 8 8 8 7 7 8 8 7
4 4 5 5 5 6 6 6 7 8 8 9 9 10 10 10 11 12 12 14 14 14 14 13 12 11 10 9 8 7 7 7 6 7 8 8 8 7 8 8 8 7
3 4 4 5 5 5 6 6 6 7 8 8 8 9 10 10 11 11 12 13 14 14 14 13 12 10 9 9 8 7 7 7 7 8 8 8 7 7 8 8 8 7
3 3 4 4 5 5 5 5 6 6 7 8 8 8 9 10 11 11 12 12 13 13 13 12 11 9 8 8 8 7 7 7 7 8 8 7 7 8 8 8 8 8
3 3 3 4 4 5 5 5 6 6 6 7 7 8 9 10 10 11 12 12 12 13 12 11 10 8 8 8 8 7 7 7 7 8 7 7 7 8 8 8 8 8

ECMWFNIL_250_rhum_006.txt.gz
RH
6 5 5 5 4 4 4 4 5 7 8 9 8 7 7 6 5 5 5 5 4 5 4 4 5 5 6 6 5 5 6 7 8 7 8 8 8 9 9 9 8 7
6 6 6 6 5 5 5 4 4 6 8 10 10 8 7 7 6 6 5 5 5 5 5 5 5 6 6 6 5 6 6 7 8 8 8 8 9 9 9 9 8 7
6 6 6 6 6 6 6 6 5 5 6 9 11 11 9 8 7 7 6 6 6 5 5 5 6 6 6 6 6 6 6 7 8 8 9 9 9 10 9 8 7 6
6 6 6 6 7 7 7 8 7 6 6 7 11 12 12 10 9 8 7 6 6 6 6 6 6 6 7 7 6 6 7 7 8 8 9 9 9 9 8 8 7 6
6 6 6 6 7 7 8 9 8 8 8 7 9 12 14 13 11 10 9 7 7 7 7 6 6 7 7 7 7 7 7 8 8 9 10 9 9 9 8 7 6 7
6 6 6 5 6 7 8 9 9 9 10 9 8 10 13 15 15 12 10 9 8 7 7 7 6 6 7 7 6 7 8 8 9 10 10 9 9 8 8 7 6 6
5 5 5 5 6 6 8 9 9 10 10 11 10 10 11 14 16 15 12 10 9 8 8 7 7 6 7 7 7 7 8 8 9 10 10 9 9 8 7 7 6 6
5 5 5 5 5 6 6 7 8 9 10 11 11 11 11 13 14 15 14 11 9 9 8 7 7 7 7 7 7 7 8 9 10 11 10 9 9 8 7 7 6 6
4 4 5 5 5 5 5 6 6 8 9 10 11 11 11 12 13 14 15 13 11 9 8 8 8 8 7 7 7 8 8 9 10 10 10 10 9 8 7 7 6 6
4 4 4 4 5 5 5 5 5 6 8 9 10 11 11 11 12 13 14 14 13 11 9 9 9 8 7 7 7 8 9 10 10 10 10 10 9 8 7 7 7 6
4 4 4 4 4 4 4 4 5 5 6 8 9 10 10 10 11 13 13 14 13 12 10 10 9 8 8 8 8 8 9 10 10 10 10 10 9 8 8 7 7 7
4 3 3 3 3 4 4 4 4 5 6 7 8 9 9 10 11 12 12 13 13 12 11 11 10 9 9 9 8 9 10 11 10 9 10 9 8 8 8 7 7 7
4 3 3 3 3 3 3 4 4 4 5 6 7 8 9 9 10 11 11 12 12 12 11 11 10 10 10 10 9 10 11 11 10 10 10 9 8 8 8 8 8 8
3 3 3 3 3 3 3 3 4 4 5 5 6 8 8 9 9 9 10 10 11 11 11 10 10 11 11 10 10 10 11 12 11 10 10 9 8 8 8 8 8 9
3 3 3 3 3 3 3 3 3 4 4 5 6 7 7 8 8 8 9 9 9 10 10 10 10 11 11 10 10 11 12 12 11 11 11 10 8 8 8 8 9 9
3 3 3 3 3 2 3 3 3 3 4 4 5 6 6 7 7 8 8 8 9 9 9 10 10 10 10 10 11 12 12 13 12 11 11 10 8 8 8 9 9 9
2 2 2 3 3 2 2 3 3 3 4 4 5 5 6 6 7 7 7 7 8 8 8 10 9 9 10 10 11 12 13 13 12 11 11 9 8 8 8 9 9 9
2 2 2 2 3 3 2 3 3 3 3 4 5 4 5 6 6 6 7 7 7 7 8 9 9 9 9 9 10 12 12 13 12 12 11 9 8 9 9 9 10 10
1 2 2 2 2 2 2 3 2 3 3 3 4 4 4 5 5 6 6 6 7 7 8 9 9 9 9 9 10 12 12 12 12 11 10 8 8 9 10 10 10 10
1 2 2 2 2 2 2 3 2 3 3 3 4 4 4 4 5 5 6 6 7 7 7 8 9 9 9 9 10 11 12 12 12 10 8 8 9 10 10 10 10 9
1 2 2 2 2 2 2 2 2 2 3 3 4 4 3 4 4 5 5 6 6 7 7 8 8 8 9 10 11 11 12 12 12 9 8 8 9 10 10 10 9 8
2 2 2 2 2 2 2 2 2 2 3 3 4 3 3 3 4 4 5 5 6 6 7 8 8 8 9 10 11 11 12 12 11 9 8 8 9 10 10 10 9 8
2 1 2 2 2 2 2 2 2 2 3 3 4 3 3 3 4 4 4 5 5 6 7 8 8 8 8 10 11 11 12 11 10 9 8 8 9 10 10 9 8 7
2 1 2 2 2 2 2 2 2 2 3 3 3 3 3 3 4 4 4 5 5 6 7 7 8 8 8 9 10 11 11 10 9 8 8 9 10 10 10 9 8 7
1 2 2 2 2 2 2 2 2 2 2 3 3 2 2 3 3 3 4 4 5 6 6 7 7 8 8 10 10 11 11 10 8 8 8 9 10 10 10 9 7 6
1 2 2 2 2 2 2 2 2 2 2 3 2 2 2 3 3 3 4 4 5 6 6 6 7 7 8 9 10 10 10 9 8 8 8 9 10 10 9 9 7 6

ECMWFNIL_250_rhum_012.txt.gz
RH
9 8 7 7 8 8 9 8 8 8 9 9 9 9 9 9 9 9 9 9 8 8 8 8 8 8 9 10 10 10 10 9 9 9 8 8 8 7 7 7 8 9
9 8 7 7 7 7 7 8 7 7 8 8 8 9 9 9 8 8 8 8 8 8 7 7 7 8 8 9 9 9 9 9 9 9 8 8 8 7 7 6 6 7
7 7 7 7 6 6 6 7 7 7 7 8 8 8 9 9 8 8 8 7 8 7 7 7 6 7 7 8 9 8 8 8 8 8 8 8 8 7 7 5 5 6
5 5 6 6 6 6 6 6 7 7 7 7 8 9 9 9 9 8 8 7 7 7 6 6 6 6 7 7 8 8 7 7 6 7 7 8 8 8 7 5 5 6
4 5 5 5 5 5 5 6 6 7 7 7 7 8 9 9 9 8 8 7 6 6 5 6 6 6 6 7 7 7 7 7 6 6 6 7 7 7 7 6 5 5
4 4 5 5 5 5 5 5 5 5 6 6 6 7 7 8 8 7 7 6 6 5 5 5 5 5 6 6 6 6 6 6 6 6 6 6 6 6 7 6 5 5
4 4 4 4 4 4 4 3 4 4 4 5 5 6 6 7 7 7 6 5 5 5 4 4 4 4 5 5 5 5 5 5 5 5 6 5 6 6 6 6 6 5
3 3 3 3 3 3 3 3 3 3 3 3 4 4 5 5 5 5 5 5 4 4 4 4 3 3 4 4 4 4 4 4 4 5 5 5 5 6 6 6 5 5
2 2 2 2 2 2 3 2 2 2 2 3 3 3 3 4 4 4 4 4 3 3 3 3 3 3 3 3 3 4 4 4 4 4 4 5 5 5 5 5 5 5
2 2 2 2 2 2 2 2 2 2 2 2 3 3 3 3 3 3 3 3 3 3 3 3 3 3 3 3 3 3 3 3 3 4 4 4 5 5 5 5 5 5
2 2 2 2 2 2 2 2 2 2 2 2 2 2 3 3 3 3 3 3 3 3 3 2 3 3 3 3 3 3 3 3 3 3 4 4 4 5 5 4 5 5
3 3 2 2 2 2 2 2 2 2 2 2 2 2 3 2 3 3 3 3 3 3 3 2 2 2 2 2 2 3 3 3 3 3 3 4 4 4 5 4 5 6
3 3 3 3 3 2 3 2 2 3 2 3 3 2 3 3 3 3 3 3 3 3 3 3 2 2 2 2 2 2 3 2 3 3 3 3 4 4 4 5 5 6
3 3 3 3 3 3 3 3 2 3 2 3 3 3 3 3 3 3 3 3 3 3 3 3 3 3 2 3 2 2 3 2 2 3 3 3 4 4 4 5 5 6
3 4 3 3 3 3 3 3 3 3 2 3 3 2 3 2 2 3 3 3 3 3 3 3 3 3 3 3 3 2 2 2 2 3 3 3 4 4 4 5 5 6
3 4 3 3 3 3 3 3 3 3 3 3 3 2 3 3 2 3 3 3 3 2 3 3 2 3 3 2 3 2 2 2 2 3 3 3 4 4 4 5 5 6
4 4 3 3 3 3 3 3 3 3 2 2 3 2 3 2 2 3 3 3 3 2 2 3 2 3 3 2 2 2 2 3 2 3 3 3 4 4 4 5 5 5
4 4 3 3 3 3 3 3 2 3 2 2 3 2 3 3 2 3 3 2 3 2 2 2 2 2 2 2 2 2 2 3 2 3 3 3 4 4 4 5 5 5
4 4 4 4 4 3 3 3 2 3 2 2 3 2 3 3 2 3 3 2 2 2 2 2 2 2 2 2 2 2 3 3 2 3 3 3 4 4 4 5 5 5
4 4 4 4 4 3 3 3 3 3 3 3 3 3 3 3 3 3 3 2 2 2 2 2 2 2 2 2 2 3 2 3 3 3 3 3 3 4 4 4 4 5
4 4 4 4 4 3 3 3 3 3 3 3 3 3 3 3 3 3 2 2 2 2 2 2 2 2 2 2 2 3 3 3 3 3 3 3 3 4 4 4 4 4
4 4 4 3 3 3 3 3 3 3 3 3 3 3 3 3 3 3 2 2 2 2 2 2 2 2 2 2 2 3 3 3 3 3 3 3 3 3 4 4 4 4
3 3 3 3 3 3 3 3 3 3 3 3 3 3 3 3 3 2 2 2 2 2 2 2 2 2 2 3 3 3 3 3 3 3 3 3 3 3 4 4 4 4
3 3 3 3 3 3 2 3 3 3 3 2 2 3 2 2 3 2 2 2 2 2 2 2 2 2 2 3 3 3 3 3 3 3 3 3 3 3 4 4 4 5
3 3 3 2 3 2 2 3 2 2 3 2 2 2 2 2 2 2 2 2 2 2 2 2 2 2 3 3 3 3 3 3 3 3 3 3 3 3 4 4 4 5
2 2 2 2 2 2 2 2 2 2 2 2 2 2 2 2 2 2 2 2 2 2 2 2 2 2 2 3 3 3 3 3 3 3 3 3 3 4 4 4 5 5